FIN83K EGLL-EFHK

Flight info

Callsign FIN83K
Flight time 3h 28m
Altitude 35000
Route BPK Q295 PAAVO M604 GIVPO DCT ROKAN DCT RENEQ DCT AMADA DCT ALAMI DCT OKEVU DCT EVADI Y370 DIVAM
Aircraft A321/M-SDE3FGHIRWY/LB1

Departure

Time 2026-04-21 12:12
Airport London Heathrow Airport (EGLL)

Arrival

Time 2026-04-21 15:40
Airport Helsinki Vantaa Airport (EFHK)
Time Latitude Longitude Altitude Speed Heading
2026-04-21 11:49 51.47059 -0.46074 87 ft 0 kts 55°
2026-04-21 12:00 51.47059 -0.46075 87 ft 1 kts 55°
2026-04-21 12:01 51.47057 -0.46080 87 ft 0 kts 61°
2026-04-21 12:01 51.47052 -0.46104 91 ft 1 kts 107°
2026-04-21 12:01 51.47057 -0.46129 89 ft 2 kts 107°
2026-04-21 12:02 51.47057 -0.46155 90 ft 2 kts 81°
2026-04-21 12:02 51.47046 -0.46205 90 ft 2 kts 22°
2026-04-21 12:02 51.47031 -0.46201 90 ft 2 kts 330°
2026-04-21 12:03 51.47024 -0.46190 90 ft 0 kts 330°
2026-04-21 12:06 51.47043 -0.46211 90 ft 7 kts 324°
2026-04-21 12:07 51.47093 -0.46269 91 ft 11 kts 325°
2026-04-21 12:07 51.47167 -0.46349 89 ft 14 kts 326°
2026-04-21 12:07 51.47236 -0.46458 90 ft 15 kts 285°
2026-04-21 12:07 51.47235 -0.46623 91 ft 7 kts 271°
2026-04-21 12:08 51.47236 -0.46664 88 ft 11 kts 273°
2026-04-21 12:08 51.47233 -0.46816 89 ft 15 kts 253°
2026-04-21 12:08 51.47138 -0.46864 87 ft 17 kts 180°
2026-04-21 12:08 51.47011 -0.46863 87 ft 19 kts 179°
2026-04-21 12:09 51.46885 -0.46863 89 ft 17 kts 180°
2026-04-21 12:09 51.46771 -0.46869 91 ft 15 kts 199°
2026-04-21 12:09 51.46745 -0.47034 87 ft 18 kts 270°
2026-04-21 12:09 51.46745 -0.47258 87 ft 22 kts 271°
2026-04-21 12:10 51.46744 -0.47491 87 ft 19 kts 269°
2026-04-21 12:10 51.46742 -0.47698 87 ft 18 kts 270°
2026-04-21 12:10 51.46699 -0.47859 89 ft 17 kts 193°
2026-04-21 12:10 51.46653 -0.47724 87 ft 17 kts 89°
2026-04-21 12:11 51.46647 -0.47528 89 ft 17 kts 116°
2026-04-21 12:11 51.46541 -0.47495 86 ft 16 kts 181°
2026-04-21 12:11 51.46481 -0.47436 88 ft 8 kts 88°
2026-04-21 12:11 51.46481 -0.47414 89 ft 0 kts 89°
2026-04-21 12:12 51.46485 -0.46990 92 ft 100 kts 89°
2026-04-21 12:12 51.46491 -0.45374 502 ft 165 kts 90°
2026-04-21 12:12 51.46495 -0.43499 1850 ft 170 kts 87°
2026-04-21 12:12 51.46599 -0.41548 2481 ft 185 kts 75°
2026-04-21 12:13 51.47314 -0.39687 2864 ft 211 kts 52°
2026-04-21 12:13 51.48288 -0.37788 3647 ft 225 kts 52°
2026-04-21 12:13 51.49319 -0.35764 4655 ft 239 kts 53°
2026-04-21 12:13 51.50393 -0.33649 5573 ft 249 kts 53°
2026-04-21 12:14 51.51488 -0.31485 5886 ft 250 kts 53°
2026-04-21 12:14 51.52455 -0.29185 5986 ft 248 kts 68°
2026-04-21 12:14 51.53036 -0.26586 5985 ft 246 kts 72°
2026-04-21 12:14 51.53587 -0.23981 5983 ft 246 kts 73°
2026-04-21 12:15 51.54138 -0.21407 5983 ft 247 kts 69°
2026-04-21 12:15 51.55188 -0.19235 5983 ft 254 kts 37°
2026-04-21 12:15 51.56876 -0.18319 5986 ft 262 kts 15°
2026-04-21 12:15 51.58654 -0.17712 6075 ft 260 kts 21°
2026-04-21 12:16 51.60394 -0.16958 6078 ft 261 kts 18°
2026-04-21 12:16 51.62162 -0.16275 6084 ft 261 kts 18°
2026-04-21 12:16 51.63927 -0.15585 6089 ft 261 kts 18°
2026-04-21 12:16 51.65682 -0.14865 6091 ft 261 kts 19°
2026-04-21 12:17 51.67445 -0.14137 6090 ft 261 kts 19°
2026-04-21 12:17 51.69203 -0.13408 6090 ft 261 kts 19°
2026-04-21 12:17 51.70956 -0.12673 6090 ft 261 kts 19°
2026-04-21 12:17 51.72703 -0.11890 6082 ft 259 kts 25°
2026-04-21 12:18 51.74135 -0.10270 6083 ft 251 kts 51°
2026-04-21 12:18 51.75036 -0.07862 6292 ft 256 kts 71°
2026-04-21 12:18 51.75422 -0.05037 7521 ft 256 kts 84°
2026-04-21 12:18 51.75639 -0.02190 8898 ft 257 kts 83°
2026-04-21 12:19 51.75884 0.00691 10166 ft 262 kts 83°
2026-04-21 12:19 51.76146 0.03677 11001 ft 279 kts 82°
2026-04-21 12:19 51.76426 0.06920 11570 ft 305 kts 82°
2026-04-21 12:19 51.76724 0.10452 12144 ft 327 kts 82°
2026-04-21 12:20 51.77031 0.14152 13060 ft 337 kts 82°
2026-04-21 12:20 51.77342 0.17931 14102 ft 343 kts 82°
2026-04-21 12:20 51.77660 0.21784 15048 ft 349 kts 82°
2026-04-21 12:20 51.77982 0.25712 15469 ft 354 kts 82°
2026-04-21 12:21 51.78303 0.29649 15644 ft 354 kts 82°
2026-04-21 12:21 51.78623 0.33594 15834 ft 354 kts 82°
2026-04-21 12:21 51.78941 0.37542 16000 ft 355 kts 82°
2026-04-21 12:21 51.79258 0.41502 16183 ft 356 kts 82°
2026-04-21 12:22 51.79611 0.45475 16355 ft 357 kts 77°
2026-04-21 12:22 51.80535 0.49295 16206 ft 377 kts 59°
2026-04-21 12:22 51.82275 0.52488 16037 ft 384 kts 40°
2026-04-21 12:22 51.84625 0.54578 15878 ft 390 kts 21°
2026-04-21 12:23 51.87289 0.55465 15741 ft 393 kts 11°
2026-04-21 12:23 51.90010 0.55843 15583 ft 395 kts
2026-04-21 12:23 51.92705 0.54901 15437 ft 401 kts 341°
2026-04-21 12:23 51.95121 0.52665 15128 ft 395 kts 323°
2026-04-21 12:24 51.96911 0.49558 14540 ft 363 kts 306°
2026-04-21 12:24 51.97993 0.46042 14073 ft 336 kts 290°
2026-04-21 12:24 51.98488 0.42428 13246 ft 324 kts 276°
2026-04-21 12:24 51.98422 0.38823 12282 ft 318 kts 260°
2026-04-21 12:25 51.97824 0.35409 11345 ft 312 kts 245°
2026-04-21 12:25 51.96759 0.32407 10684 ft 300 kts 230°
2026-04-21 12:25 51.95330 0.29927 10454 ft 300 kts 217°
2026-04-21 12:25 51.93628 0.28040 10248 ft 295 kts 204°
2026-04-21 12:26 51.93029 0.27570 10210 ft 294 kts 199°
2026-04-21 12:26 51.91015 0.26539 10072 ft 291 kts 190°
2026-04-21 12:26 51.89061 0.25697 9933 ft 290 kts 191°
2026-04-21 12:26 51.87114 0.24850 9803 ft 290 kts 191°
2026-04-21 12:27 51.85171 0.24003 9663 ft 289 kts 191°
2026-04-21 12:27 51.83194 0.23147 9531 ft 298 kts 191°
2026-04-21 12:27 51.81188 0.22281 9395 ft 298 kts 191°
2026-04-21 12:27 51.79180 0.21417 9074 ft 298 kts 191°
2026-04-21 12:28 51.77187 0.20555 8647 ft 296 kts 191°
2026-04-21 12:28 51.75201 0.19701 8214 ft 294 kts 191°
2026-04-21 12:28 51.73261 0.18868 7782 ft 292 kts 191°
2026-04-21 12:28 51.71289 0.18025 7565 ft 287 kts 191°
2026-04-21 12:29 51.69366 0.17210 7500 ft 291 kts 190°
2026-04-21 12:29 51.67413 0.16377 7404 ft 291 kts 192°
2026-04-21 12:29 51.65575 0.14969 7348 ft 298 kts 214°
2026-04-21 12:29 51.64207 0.12450 7228 ft 304 kts 239°
2026-04-21 12:30 51.63485 0.09253 7079 ft 305 kts 252°
2026-04-21 12:30 51.62893 0.05972 6935 ft 305 kts 253°
2026-04-21 12:30 51.62300 0.02702 6788 ft 304 kts 252°
2026-04-21 12:30 51.61701 -0.00561 6640 ft 305 kts 252°
2026-04-21 12:31 51.61098 -0.03820 6226 ft 300 kts 252°
2026-04-21 12:31 51.60501 -0.07041 6032 ft 301 kts 252°
2026-04-21 12:31 51.59903 -0.10253 5876 ft 302 kts 252°
2026-04-21 12:31 51.59295 -0.13520 5824 ft 301 kts 252°
2026-04-21 12:32 51.58714 -0.16643 5673 ft 279 kts 252°
2026-04-21 12:32 51.58165 -0.19589 5554 ft 271 kts 252°
2026-04-21 12:32 51.57634 -0.22433 5335 ft 260 kts 252°
2026-04-21 12:32 51.57120 -0.25185 5213 ft 256 kts 252°
2026-04-21 12:33 51.56693 -0.27955 5082 ft 255 kts 264°
2026-04-21 12:33 51.56599 -0.30797 4956 ft 254 kts 267°
2026-04-21 12:33 51.56477 -0.33635 4813 ft 254 kts 266°
2026-04-21 12:33 51.56344 -0.36460 4763 ft 254 kts 266°
2026-04-21 12:34 51.56207 -0.39286 4761 ft 254 kts 266°
2026-04-21 12:34 51.56070 -0.42118 4761 ft 254 kts 266°
2026-04-21 12:34 51.55934 -0.44941 4762 ft 254 kts 266°
2026-04-21 12:34 51.55799 -0.47778 4758 ft 254 kts 266°
2026-04-21 12:35 51.55666 -0.50566 4762 ft 254 kts 266°
2026-04-21 12:35 51.55527 -0.53392 4757 ft 254 kts 266°
2026-04-21 12:35 51.55432 -0.55302 4760 ft 254 kts 266°
2026-04-21 12:35 51.55294 -0.58124 4758 ft 253 kts 265°
2026-04-21 12:36 51.55155 -0.60947 4707 ft 253 kts 266°
2026-04-21 12:36 51.55022 -0.63631 4563 ft 227 kts 266°
2026-04-21 12:36 51.54860 -0.66831 4355 ft 214 kts 266°
2026-04-21 12:36 51.54776 -0.68452 4252 ft 212 kts 266°
2026-04-21 12:37 51.54655 -0.70798 4098 ft 211 kts 266°
2026-04-21 12:37 51.54532 -0.73142 3946 ft 210 kts 266°
2026-04-21 12:37 51.54408 -0.75475 3811 ft 209 kts 266°
2026-04-21 12:37 51.54282 -0.77808 3742 ft 210 kts 266°
2026-04-21 12:38 51.54154 -0.80136 3650 ft 209 kts 265°
2026-04-21 12:38 51.53690 -0.82321 3624 ft 209 kts 231°
2026-04-21 12:38 51.52551 -0.83634 3629 ft 199 kts 190°
2026-04-21 12:38 51.51243 -0.83594 3657 ft 186 kts 158°
2026-04-21 12:39 51.50027 -0.82924 3657 ft 184 kts 152°
2026-04-21 12:39 51.48970 -0.81898 3654 ft 174 kts 126°
2026-04-21 12:39 51.48521 -0.80168 3658 ft 168 kts 99°
2026-04-21 12:39 51.48130 -0.78388 3607 ft 170 kts 108°
2026-04-21 12:40 51.47782 -0.76600 3485 ft 167 kts 101°
2026-04-21 12:40 51.47604 -0.74813 3347 ft 155 kts 88°
2026-04-21 12:40 51.47617 -0.73137 3168 ft 147 kts 86°
2026-04-21 12:40 51.47629 -0.71500 2979 ft 143 kts 87°
2026-04-21 12:41 51.47648 -0.69912 2893 ft 142 kts 86°
2026-04-21 12:41 51.47691 -0.68358 2818 ft 131 kts 85°
2026-04-21 12:41 51.47704 -0.66992 2656 ft 117 kts 88°
2026-04-21 12:41 51.47699 -0.65721 2410 ft 112 kts 87°
2026-04-21 12:42 51.47712 -0.64502 2199 ft 109 kts 85°
2026-04-21 12:42 51.47722 -0.63309 2005 ft 105 kts 89°
2026-04-21 12:42 51.47683 -0.62136 1789 ft 106 kts 91°
2026-04-21 12:42 51.47671 -0.60960 1650 ft 105 kts 86°
2026-04-21 12:43 51.47699 -0.59796 1537 ft 104 kts 84°
2026-04-21 12:43 51.47721 -0.58627 1481 ft 105 kts 87°
2026-04-21 12:43 51.47717 -0.57457 1340 ft 105 kts 86°
2026-04-21 12:43 51.47712 -0.56295 1177 ft 105 kts 87°
2026-04-21 12:44 51.47717 -0.55097 988 ft 109 kts 86°
2026-04-21 12:44 51.47736 -0.53869 820 ft 111 kts 85°
2026-04-21 12:44 51.47738 -0.52627 657 ft 112 kts 87°
2026-04-21 12:44 51.47740 -0.51355 458 ft 117 kts 88°
2026-04-21 12:45 51.47745 -0.50046 309 ft 117 kts 89°
2026-04-21 12:45 51.47752 -0.48758 170 ft 114 kts 88°
2026-04-21 12:45 51.47756 -0.47519 90 ft 100 kts 89°
2026-04-21 12:45 51.47763 -0.46717 90 ft 48 kts 89°
2026-04-21 12:46 51.47762 -0.46342 88 ft 25 kts 92°
2026-04-21 12:46 51.47693 -0.46123 89 ft 22 kts 149°
2026-04-21 12:46 51.47602 -0.46045 89 ft 10 kts 185°
2026-04-21 12:46 51.47527 -0.46105 88 ft 13 kts 227°
2026-04-21 12:47 51.47463 -0.46171 88 ft 10 kts 156°
2026-04-21 12:47 51.47437 -0.46104 89 ft 3 kts 59°
2026-04-21 12:47 51.47451 -0.46050 88 ft 6 kts 65°
2026-04-21 12:47 51.47457 -0.46029 88 ft 0 kts 64°
2026-04-21 12:53 51.47455 -0.46035 87 ft 2 kts 64°
2026-04-21 12:53 51.47447 -0.46058 89 ft 2 kts 59°
2026-04-21 12:53 51.47438 -0.46080 89 ft 2 kts 43°
2026-04-21 12:54 51.47425 -0.46097 89 ft 2 kts 23°
2026-04-21 12:54 51.47409 -0.46104 90 ft 2 kts 355°
2026-04-21 12:54 51.47394 -0.46098 89 ft 2 kts 327°
2026-04-21 12:54 51.47391 -0.46095 89 ft 0 kts 322°
2026-04-21 13:00 51.47395 -0.46100 89 ft 2 kts 323°
2026-04-21 13:00 51.47411 -0.46118 90 ft 4 kts 326°
2026-04-21 13:00 51.47439 -0.46149 90 ft 6 kts 326°
2026-04-21 13:01 51.47476 -0.46189 89 ft 7 kts 326°
2026-04-21 13:01 51.47511 -0.46250 89 ft 8 kts 292°
2026-04-21 13:01 51.47516 -0.46349 87 ft 10 kts 268°
2026-04-21 13:01 51.47514 -0.46464 87 ft 11 kts 269°
2026-04-21 13:02 51.47514 -0.46600 87 ft 15 kts 269°
2026-04-21 13:02 51.47495 -0.46793 91 ft 19 kts 259°
2026-04-21 13:02 51.47490 -0.47154 87 ft 15 kts 270°
2026-04-21 13:03 51.47491 -0.47332 87 ft 16 kts 270°
2026-04-21 13:03 51.47492 -0.47521 87 ft 18 kts 270°
2026-04-21 13:03 51.47490 -0.47722 87 ft 18 kts 270°
2026-04-21 13:03 51.47490 -0.47934 87 ft 19 kts 270°
2026-04-21 13:04 51.47489 -0.48155 87 ft 20 kts 269°
2026-04-21 13:04 51.47461 -0.48343 90 ft 16 kts 199°
2026-04-21 13:04 51.47347 -0.48363 87 ft 17 kts 180°
2026-04-21 13:04 51.47226 -0.48361 87 ft 18 kts 179°
2026-04-21 13:05 51.47098 -0.48356 90 ft 19 kts 178°
2026-04-21 13:05 51.46962 -0.48359 89 ft 20 kts 181°
2026-04-21 13:05 51.46821 -0.48357 89 ft 17 kts 180°
2026-04-21 13:05 51.46742 -0.48295 87 ft 12 kts 106°
2026-04-21 13:06 51.46697 -0.48214 88 ft 10 kts 168°
2026-04-21 13:06 51.46636 -0.48212 87 ft 8 kts 181°
2026-04-21 13:06 51.46579 -0.48216 87 ft 11 kts 182°
2026-04-21 13:06 51.46493 -0.48199 89 ft 12 kts 137°
2026-04-21 13:07 51.46483 -0.47953 87 ft 54 kts 88°
2026-04-21 13:07 51.46495 -0.46890 89 ft 133 kts 89°
2026-04-21 13:07 51.46495 -0.45192 657 ft 154 kts 88°
2026-04-21 13:07 51.46504 -0.43526 1651 ft 146 kts 87°
2026-04-21 13:08 51.46575 -0.41853 1970 ft 159 kts 75°
2026-04-21 13:08 51.47142 -0.40232 2127 ft 179 kts 53°
2026-04-21 13:08 51.47973 -0.38597 2244 ft 198 kts 53°
2026-04-21 13:08 51.48893 -0.36770 2390 ft 223 kts 53°
2026-04-21 13:09 51.49897 -0.34773 3018 ft 234 kts 53°
2026-04-21 13:09 51.50932 -0.32716 3870 ft 238 kts 53°
2026-04-21 13:09 51.51969 -0.30628 4724 ft 241 kts 56°
2026-04-21 13:09 51.52688 -0.28201 5504 ft 243 kts 72°
2026-04-21 13:10 51.53238 -0.25626 5911 ft 248 kts 72°
2026-04-21 13:10 51.53792 -0.23002 6002 ft 247 kts 72°
2026-04-21 13:10 51.54479 -0.20445 6014 ft 248 kts 54°
2026-04-21 13:10 51.55890 -0.18828 6012 ft 258 kts 23°
2026-04-21 13:11 51.57646 -0.18115 6098 ft 261 kts 19°
2026-04-21 13:11 51.59383 -0.17417 6106 ft 263 kts 14°
2026-04-21 13:11 51.61181 -0.16890 6107 ft 262 kts 17°
2026-04-21 13:11 51.62949 -0.16207 6111 ft 261 kts 19°
2026-04-21 13:12 51.64700 -0.15444 6116 ft 261 kts 21°
2026-04-21 13:12 51.66450 -0.14652 6114 ft 260 kts 20°
2026-04-21 13:12 51.68198 -0.13884 6122 ft 261 kts 19°
2026-04-21 13:12 51.69952 -0.13128 6118 ft 261 kts 19°
2026-04-21 13:13 51.71711 -0.12374 6113 ft 261 kts 19°
2026-04-21 13:13 51.73389 -0.11358 6111 ft 255 kts 39°
2026-04-21 13:13 51.74588 -0.09327 6113 ft 250 kts 61°
2026-04-21 13:13 51.75259 -0.06725 6690 ft 252 kts 77°
2026-04-21 13:14 51.75521 -0.03927 7550 ft 253 kts 83°
2026-04-21 13:14 51.75751 -0.01088 8345 ft 257 kts 83°
2026-04-21 13:14 51.75994 0.01785 9100 ft 260 kts 83°
2026-04-21 13:14 51.76244 0.04689 9903 ft 263 kts 82°
2026-04-21 13:15 51.76496 0.07645 10606 ft 270 kts 83°
2026-04-21 13:15 51.76757 0.10776 10833 ft 293 kts 83°
2026-04-21 13:15 51.77037 0.14167 11000 ft 316 kts 83°
2026-04-21 13:15 51.77336 0.17807 11140 ft 338 kts 83°
2026-04-21 13:16 51.77650 0.21631 11608 ft 347 kts 83°
2026-04-21 13:16 51.77970 0.25521 12269 ft 352 kts 82°
2026-04-21 13:16 51.78291 0.29461 12976 ft 356 kts 83°
2026-04-21 13:16 51.78610 0.33443 13646 ft 360 kts 83°
2026-04-21 13:17 51.78930 0.37474 14310 ft 364 kts 83°
2026-04-21 13:17 51.79253 0.41544 14922 ft 367 kts 82°
2026-04-21 13:17 51.79580 0.45659 15537 ft 371 kts 82°
2026-04-21 13:17 51.79913 0.49817 16144 ft 375 kts 82°
2026-04-21 13:18 51.80247 0.54020 16746 ft 379 kts 82°
2026-04-21 13:18 51.80580 0.58264 17359 ft 383 kts 82°
2026-04-21 13:18 51.80801 0.61103 17740 ft 386 kts 82°
2026-04-21 13:18 51.81296 0.65382 18303 ft 390 kts 74°
2026-04-21 13:19 51.82233 0.69522 18832 ft 394 kts 67°
2026-04-21 13:19 51.83304 0.73617 19320 ft 398 kts 67°
2026-04-21 13:19 51.84383 0.77764 19821 ft 402 kts 67°
2026-04-21 13:19 51.85525 0.81903 20321 ft 405 kts 62°
2026-04-21 13:20 51.87037 0.85759 20809 ft 408 kts 52°
2026-04-21 13:20 51.88944 0.89181 21282 ft 412 kts 43°
2026-04-21 13:20 51.91084 0.92293 21755 ft 415 kts 42°
2026-04-21 13:20 51.93238 0.95418 22237 ft 418 kts 42°
2026-04-21 13:21 51.95411 0.98579 22716 ft 421 kts 42°
2026-04-21 13:21 51.97597 1.01767 23183 ft 424 kts 42°
2026-04-21 13:21 51.99793 1.04977 23640 ft 427 kts 42°
2026-04-21 13:21 52.02004 1.08213 24070 ft 429 kts 42°
2026-04-21 13:22 52.04238 1.11426 24508 ft 430 kts 40°
2026-04-21 13:22 52.06579 1.14473 24812 ft 434 kts 36°
2026-04-21 13:22 52.08997 1.17441 25175 ft 436 kts 36°
2026-04-21 13:22 52.11422 1.20430 25560 ft 439 kts 35°
2026-04-21 13:23 52.13840 1.23490 25899 ft 442 kts 37°
2026-04-21 13:23 52.16227 1.26666 26241 ft 445 kts 37°
2026-04-21 13:23 52.18606 1.29935 26606 ft 448 kts 38°
2026-04-21 13:23 52.20982 1.33247 26955 ft 451 kts 38°
2026-04-21 13:24 52.23372 1.36582 27320 ft 454 kts 38°
2026-04-21 13:24 52.25779 1.39918 27668 ft 456 kts 38°
2026-04-21 13:24 52.28214 1.43260 28109 ft 456 kts 37°
2026-04-21 13:24 52.30614 1.46536 28615 ft 455 kts 37°
2026-04-21 13:25 52.33038 1.49845 29103 ft 454 kts 39°
2026-04-21 13:25 52.35312 1.53445 29571 ft 456 kts 43°
2026-04-21 13:25 52.37528 1.57152 30061 ft 455 kts 43°
2026-04-21 13:25 52.39740 1.60860 30533 ft 454 kts 43°
2026-04-21 13:26 52.41943 1.64563 30924 ft 453 kts 43°
2026-04-21 13:26 52.44135 1.68265 31317 ft 453 kts 43°
2026-04-21 13:26 52.46325 1.71980 31696 ft 452 kts 43°
2026-04-21 13:26 52.48512 1.75689 32077 ft 452 kts 43°
2026-04-21 13:27 52.50698 1.79391 32454 ft 451 kts 43°
2026-04-21 13:27 52.52883 1.83086 32818 ft 451 kts 43°
2026-04-21 13:27 52.55066 1.86786 33176 ft 450 kts 43°
2026-04-21 13:27 52.57242 1.90485 33535 ft 450 kts 43°
2026-04-21 13:28 52.59416 1.94191 33879 ft 450 kts 43°
2026-04-21 13:28 52.61588 1.97897 34223 ft 450 kts 43°
2026-04-21 13:28 52.63759 2.01606 34533 ft 450 kts 43°
2026-04-21 13:28 52.65929 2.05317 34811 ft 449 kts 43°
2026-04-21 13:29 52.68095 2.09024 35077 ft 449 kts 43°
2026-04-21 13:29 52.70261 2.12736 35319 ft 450 kts 43°
2026-04-21 13:29 52.74596 2.20192 35403 ft 450 kts 43°
2026-04-21 13:30 52.78922 2.27667 35401 ft 450 kts 44°
2026-04-21 13:30 52.83246 2.35155 35406 ft 450 kts 44°
2026-04-21 13:31 52.87565 2.42642 35406 ft 449 kts 44°
2026-04-21 13:31 52.91878 2.50138 35408 ft 449 kts 44°
2026-04-21 13:32 52.96178 2.57668 35416 ft 450 kts 44°
2026-04-21 13:32 53.01074 2.63979 35431 ft 445 kts 27°
2026-04-21 13:33 53.06602 2.68574 35430 ft 444 kts 25°
2026-04-21 13:33 53.12133 2.73153 35429 ft 444 kts 25°
2026-04-21 13:34 53.17669 2.77756 35433 ft 444 kts 26°
2026-04-21 13:34 53.23165 2.82350 35428 ft 444 kts 26°
2026-04-21 13:35 53.28691 2.86986 35435 ft 445 kts 26°
2026-04-21 13:35 53.34220 2.91638 35436 ft 445 kts 26°
2026-04-21 13:36 53.39746 2.96290 35435 ft 445 kts 26°
2026-04-21 13:36 53.45271 3.00963 35439 ft 445 kts 26°
2026-04-21 13:37 53.50789 3.05645 35439 ft 444 kts 26°
2026-04-21 13:37 53.56312 3.10340 35441 ft 444 kts 27°
2026-04-21 13:38 53.61821 3.15044 35443 ft 444 kts 27°
2026-04-21 13:38 53.67021 3.20579 35451 ft 443 kts 41°
2026-04-21 13:39 53.71240 3.28161 35451 ft 443 kts 48°
2026-04-21 13:39 53.75342 3.35934 35453 ft 443 kts 48°
2026-04-21 13:40 53.79447 3.43712 35449 ft 443 kts 48°
2026-04-21 13:40 53.83545 3.51509 35455 ft 443 kts 48°
2026-04-21 13:41 53.87636 3.59330 35455 ft 443 kts 49°
2026-04-21 13:41 53.91718 3.67165 35460 ft 443 kts 49°
2026-04-21 13:42 53.95796 3.75005 35458 ft 443 kts 49°
2026-04-21 13:42 53.99872 3.82868 35462 ft 443 kts 49°
2026-04-21 13:43 54.03943 3.90738 35457 ft 443 kts 49°
2026-04-21 13:43 54.08014 3.98641 35461 ft 443 kts 49°
2026-04-21 13:44 54.12064 4.06564 35462 ft 443 kts 49°
2026-04-21 13:44 54.16088 4.14435 35460 ft 443 kts 49°
2026-04-21 13:45 54.20138 4.22365 35464 ft 443 kts 50°
2026-04-21 13:45 54.24136 4.30367 35457 ft 442 kts 54°
2026-04-21 13:46 54.27540 4.39117 35459 ft 442 kts 57°
2026-04-21 13:46 54.30920 4.47908 35458 ft 442 kts 57°
2026-04-21 13:47 54.34293 4.56712 35462 ft 442 kts 57°
2026-04-21 13:47 54.37653 4.65536 35463 ft 442 kts 58°
2026-04-21 13:48 54.41005 4.74357 35465 ft 441 kts 58°
2026-04-21 13:48 54.44352 4.83190 35465 ft 441 kts 58°
2026-04-21 13:49 54.47690 4.92025 35467 ft 440 kts 58°
2026-04-21 13:49 54.51016 5.00873 35468 ft 440 kts 58°
2026-04-21 13:50 54.54333 5.09723 35473 ft 440 kts 58°
2026-04-21 13:50 54.57643 5.18580 35474 ft 439 kts 58°
2026-04-21 13:51 54.60936 5.27448 35472 ft 439 kts 58°
2026-04-21 13:51 54.64226 5.36322 35473 ft 439 kts 58°
2026-04-21 13:52 54.67508 5.45202 35471 ft 438 kts 59°
2026-04-21 13:52 54.70774 5.54083 35470 ft 438 kts 59°
2026-04-21 13:53 54.74014 5.62938 35474 ft 437 kts 59°
2026-04-21 13:53 54.77262 5.71846 35473 ft 437 kts 59°
2026-04-21 13:54 54.80501 5.80755 35473 ft 437 kts 59°
2026-04-21 13:54 54.83738 5.89664 35471 ft 436 kts 59°
2026-04-21 13:55 54.86965 5.98575 35469 ft 436 kts 59°
2026-04-21 13:55 54.90182 6.07503 35469 ft 436 kts 59°
2026-04-21 13:56 54.93387 6.16436 35468 ft 435 kts 60°
2026-04-21 13:56 54.96581 6.25377 35469 ft 435 kts 60°
2026-04-21 13:57 54.99763 6.34326 35469 ft 435 kts 60°
2026-04-21 13:57 55.03015 6.43206 35468 ft 434 kts 59°
2026-04-21 13:58 55.06316 6.52025 35462 ft 434 kts 59°
2026-04-21 13:58 55.09612 6.60859 35463 ft 434 kts 59°
2026-04-21 13:59 55.12873 6.69711 35464 ft 433 kts 59°
2026-04-21 13:59 55.16124 6.78579 35464 ft 433 kts 59°
2026-04-21 14:00 55.19363 6.87457 35462 ft 433 kts 59°
2026-04-21 14:00 55.22605 6.96332 35458 ft 432 kts 59°
2026-04-21 14:01 55.25833 7.05217 35454 ft 432 kts 60°
2026-04-21 14:01 55.29050 7.14107 35452 ft 432 kts 60°
2026-04-21 14:02 55.32244 7.22960 35454 ft 432 kts 60°
2026-04-21 14:03 55.37041 7.36362 35451 ft 432 kts 60°
2026-04-21 14:03 55.40245 7.45301 35453 ft 432 kts 60°
2026-04-21 14:04 55.42900 7.52737 35452 ft 431 kts 60°
2026-04-21 14:04 55.46095 7.61759 35448 ft 431 kts 60°
2026-04-21 14:05 55.49246 7.70691 35448 ft 431 kts 60°
2026-04-21 14:05 55.52414 7.79675 35444 ft 431 kts 60°
2026-04-21 14:06 55.55577 7.88675 35443 ft 431 kts 60°
2026-04-21 14:06 55.58729 7.97693 35442 ft 431 kts 60°
2026-04-21 14:07 55.61871 8.06725 35436 ft 431 kts 60°
2026-04-21 14:07 55.65008 8.15750 35433 ft 431 kts 60°
2026-04-21 14:08 55.68139 8.24803 35432 ft 431 kts 60°
2026-04-21 14:08 55.71264 8.33853 35431 ft 430 kts 60°
2026-04-21 14:09 55.74378 8.42916 35428 ft 430 kts 61°
2026-04-21 14:09 55.77479 8.51993 35429 ft 430 kts 61°
2026-04-21 14:10 55.80577 8.61084 35429 ft 430 kts 61°
2026-04-21 14:10 55.83665 8.70198 35430 ft 430 kts 61°
2026-04-21 14:11 55.86748 8.79333 35428 ft 430 kts 61°
2026-04-21 14:11 55.89827 8.88469 35433 ft 430 kts 61°
2026-04-21 14:12 55.92899 8.97615 35429 ft 430 kts 61°
2026-04-21 14:12 55.95972 9.06762 35430 ft 430 kts 61°
2026-04-21 14:13 55.99035 9.15935 35430 ft 429 kts 61°
2026-04-21 14:13 56.02074 9.25110 35434 ft 429 kts 61°
2026-04-21 14:14 56.05100 9.34312 35431 ft 429 kts 61°
2026-04-21 14:14 56.08130 9.43510 35435 ft 429 kts 61°
2026-04-21 14:15 56.11154 9.52700 35434 ft 429 kts 61°
2026-04-21 14:15 56.14169 9.61918 35435 ft 428 kts 61°
2026-04-21 14:16 56.17179 9.71155 35437 ft 428 kts 61°
2026-04-21 14:16 56.20175 9.80406 35439 ft 428 kts 61°
2026-04-21 14:17 56.23138 9.89605 35443 ft 428 kts 61°
2026-04-21 14:17 56.26123 9.98882 35441 ft 428 kts 61°
2026-04-21 14:18 56.29109 10.08175 35448 ft 428 kts 61°
2026-04-21 14:18 56.32082 10.17470 35450 ft 428 kts 61°
2026-04-21 14:19 56.35040 10.26786 35451 ft 428 kts 61°
2026-04-21 14:19 56.37992 10.36126 35454 ft 429 kts 61°
2026-04-21 14:20 56.40949 10.45484 35453 ft 428 kts 61°
2026-04-21 14:20 56.43894 10.54837 35454 ft 428 kts 62°
2026-04-21 14:21 56.46823 10.64210 35452 ft 428 kts 62°
2026-04-21 14:21 56.49744 10.73590 35449 ft 428 kts 62°
2026-04-21 14:22 56.52661 10.82983 35447 ft 427 kts 62°
2026-04-21 14:22 56.55564 10.92380 35447 ft 427 kts 62°
2026-04-21 14:23 56.58465 11.01781 35443 ft 427 kts 62°
2026-04-21 14:23 56.61362 11.11186 35441 ft 427 kts 62°
2026-04-21 14:24 56.64240 11.20614 35437 ft 426 kts 62°
2026-04-21 14:24 56.67086 11.29990 35438 ft 426 kts 62°
2026-04-21 14:25 56.69947 11.39435 35435 ft 426 kts 62°
2026-04-21 14:25 56.72806 11.48884 35431 ft 426 kts 62°
2026-04-21 14:26 56.75651 11.58335 35428 ft 425 kts 62°
2026-04-21 14:26 56.78503 11.67866 35427 ft 425 kts 62°
2026-04-21 14:27 56.81315 11.77281 35422 ft 425 kts 62°
2026-04-21 14:27 56.84136 11.86762 35421 ft 425 kts 62°
2026-04-21 14:28 56.86950 11.96255 35416 ft 425 kts 62°
2026-04-21 14:28 56.89755 12.05766 35418 ft 424 kts 62°
2026-04-21 14:29 56.92548 12.15275 35411 ft 424 kts 62°
2026-04-21 14:29 56.95336 12.24810 35411 ft 424 kts 62°
2026-04-21 14:30 56.98109 12.34357 35410 ft 424 kts 62°
2026-04-21 14:30 57.00876 12.43908 35406 ft 424 kts 62°
2026-04-21 14:31 57.03640 12.53473 35398 ft 424 kts 62°
2026-04-21 14:31 57.06397 12.63035 35398 ft 423 kts 62°
2026-04-21 14:32 57.09138 12.72611 35393 ft 423 kts 62°
2026-04-21 14:32 57.11863 12.82188 35392 ft 423 kts 62°
2026-04-21 14:33 57.14591 12.91798 35388 ft 423 kts 62°
2026-04-21 14:33 57.17312 13.01402 35380 ft 423 kts 62°
2026-04-21 14:34 57.20021 13.11016 35378 ft 423 kts 62°
2026-04-21 14:34 57.22704 13.20594 35376 ft 422 kts 62°
2026-04-21 14:35 57.25396 13.30230 35376 ft 422 kts 62°
2026-04-21 14:35 57.28093 13.39937 35376 ft 422 kts 62°
2026-04-21 14:36 57.30769 13.49597 35372 ft 422 kts 62°
2026-04-21 14:36 57.33435 13.59242 35364 ft 422 kts 62°
2026-04-21 14:37 57.36100 13.68947 35356 ft 422 kts 62°
2026-04-21 14:37 57.38746 13.78624 35352 ft 422 kts 62°
2026-04-21 14:38 57.41388 13.88321 35352 ft 422 kts 62°
2026-04-21 14:38 57.44020 13.98027 35350 ft 422 kts 62°
2026-04-21 14:39 57.46646 14.07740 35352 ft 422 kts 62°
2026-04-21 14:39 57.49268 14.17498 35355 ft 422 kts 62°
2026-04-21 14:40 57.51883 14.27274 35359 ft 422 kts 62°
2026-04-21 14:40 57.54496 14.37083 35365 ft 422 kts 62°
2026-04-21 14:41 57.57088 14.46848 35361 ft 423 kts 63°
2026-04-21 14:41 57.59699 14.56710 35367 ft 422 kts 63°
2026-04-21 14:42 57.62288 14.66524 35365 ft 422 kts 63°
2026-04-21 14:42 57.64868 14.76376 35362 ft 422 kts 63°
2026-04-21 14:43 57.67415 14.86171 35360 ft 422 kts 63°
2026-04-21 14:43 57.69992 14.96101 35355 ft 422 kts 63°
2026-04-21 14:44 57.72551 15.05978 35356 ft 422 kts 63°
2026-04-21 14:44 57.75090 15.15860 35354 ft 422 kts 63°
2026-04-21 14:45 57.77610 15.25708 35351 ft 421 kts 63°
2026-04-21 14:45 57.80139 15.35605 35351 ft 421 kts 63°
2026-04-21 14:46 57.82660 15.45537 35347 ft 421 kts 63°
2026-04-21 14:46 57.85175 15.55470 35340 ft 421 kts 63°
2026-04-21 14:47 57.87670 15.65394 35344 ft 420 kts 63°
2026-04-21 14:47 57.90157 15.75321 35340 ft 420 kts 63°
2026-04-21 14:48 57.92640 15.85268 35337 ft 420 kts 63°
2026-04-21 14:48 57.95111 15.95246 35333 ft 420 kts 63°
2026-04-21 14:49 57.97579 16.05227 35335 ft 420 kts 63°
2026-04-21 14:49 57.99625 16.13540 35332 ft 420 kts 63°
2026-04-21 14:50 58.02076 16.23545 35337 ft 421 kts 63°
2026-04-21 14:50 58.04526 16.33565 35337 ft 421 kts 63°
2026-04-21 14:51 58.06963 16.43610 35332 ft 420 kts 63°
2026-04-21 14:51 58.09392 16.53675 35333 ft 420 kts 63°
2026-04-21 14:52 58.11819 16.63721 35331 ft 420 kts 63°
2026-04-21 14:52 58.14234 16.73776 35329 ft 420 kts 63°
2026-04-21 14:53 58.16633 16.83847 35326 ft 420 kts 63°
2026-04-21 14:53 58.19028 16.93939 35327 ft 420 kts 63°
2026-04-21 14:54 58.21412 17.04051 35328 ft 420 kts 64°
2026-04-21 14:54 58.23785 17.14166 35327 ft 420 kts 64°
2026-04-21 14:55 58.26157 17.24292 35330 ft 420 kts 64°
2026-04-21 14:55 58.28520 17.34431 35329 ft 420 kts 64°
2026-04-21 14:56 58.30871 17.44593 35328 ft 420 kts 64°
2026-04-21 14:56 58.33214 17.54758 35330 ft 420 kts 64°
2026-04-21 14:57 58.35551 17.64935 35320 ft 419 kts 64°
2026-04-21 14:57 58.37869 17.75060 35320 ft 420 kts 64°
2026-04-21 14:58 58.40189 17.85259 35316 ft 420 kts 64°
2026-04-21 14:58 58.42502 17.95481 35323 ft 420 kts 64°
2026-04-21 14:59 58.44813 18.05713 35319 ft 420 kts 64°
2026-04-21 14:59 58.47156 18.15921 35316 ft 418 kts 58°
2026-04-21 15:00 58.50200 18.25373 35314 ft 417 kts 56°
2026-04-21 15:00 58.53256 18.34814 35317 ft 417 kts 56°
2026-04-21 15:01 58.56311 18.44269 35312 ft 417 kts 56°
2026-04-21 15:01 58.59353 18.53736 35319 ft 417 kts 56°
2026-04-21 15:02 58.62385 18.63222 35319 ft 417 kts 56°
2026-04-21 15:02 58.65409 18.72728 35320 ft 417 kts 56°
2026-04-21 15:03 58.68428 18.82245 35320 ft 417 kts 56°
2026-04-21 15:03 58.71436 18.91779 35318 ft 417 kts 56°
2026-04-21 15:04 58.74438 19.01319 35313 ft 417 kts 56°
2026-04-21 15:04 58.77439 19.10883 35313 ft 417 kts 56°
2026-04-21 15:05 58.80440 19.20476 35312 ft 418 kts 57°
2026-04-21 15:05 58.84923 19.34899 35313 ft 418 kts 57°
2026-04-21 15:06 58.87911 19.44539 35303 ft 418 kts 57°
2026-04-21 15:06 58.90884 19.54195 35294 ft 418 kts 57°
2026-04-21 15:07 58.93844 19.63902 35297 ft 418 kts 57°
2026-04-21 15:07 58.96805 19.73586 35289 ft 418 kts 57°
2026-04-21 15:08 58.99756 19.83240 35287 ft 419 kts 57°
2026-04-21 15:08 59.02714 19.92984 35288 ft 419 kts 57°
2026-04-21 15:09 59.05650 20.02759 35276 ft 419 kts 57°
2026-04-21 15:09 59.08589 20.12560 35284 ft 420 kts 57°
2026-04-21 15:10 59.11522 20.22384 35277 ft 420 kts 57°
2026-04-21 15:10 59.14454 20.32224 35275 ft 420 kts 57°
2026-04-21 15:11 59.17386 20.42097 35274 ft 421 kts 58°
2026-04-21 15:11 59.20306 20.51992 35267 ft 421 kts 58°
2026-04-21 15:12 59.23221 20.61916 35269 ft 421 kts 58°
2026-04-21 15:12 59.26133 20.71856 35259 ft 422 kts 58°
2026-04-21 15:13 59.29041 20.81825 35261 ft 422 kts 58°
2026-04-21 15:13 59.31950 20.91814 35258 ft 422 kts 58°
2026-04-21 15:14 59.34838 21.01776 35254 ft 423 kts 58°
2026-04-21 15:14 59.37740 21.11857 35251 ft 423 kts 58°
2026-04-21 15:15 59.40612 21.21915 35250 ft 424 kts 59°
2026-04-21 15:15 59.43492 21.32025 35252 ft 424 kts 59°
2026-04-21 15:16 59.46369 21.42152 35246 ft 424 kts 59°
2026-04-21 15:16 59.49232 21.52296 35243 ft 424 kts 59°
2026-04-21 15:17 59.52095 21.62463 35241 ft 425 kts 59°
2026-04-21 15:17 59.54954 21.72653 35240 ft 425 kts 59°
2026-04-21 15:18 59.57786 21.82810 35233 ft 425 kts 59°
2026-04-21 15:18 59.60631 21.93051 35233 ft 426 kts 59°
2026-04-21 15:19 59.63470 22.03327 35233 ft 426 kts 60°
2026-04-21 15:19 59.66295 22.13627 35230 ft 426 kts 60°
2026-04-21 15:20 59.69123 22.23959 34456 ft 431 kts 60°
2026-04-21 15:20 59.70563 22.29222 33443 ft 437 kts 59°
2026-04-21 15:20 59.72004 22.34504 32608 ft 436 kts 59°
2026-04-21 15:21 59.73450 22.39811 31770 ft 437 kts 59°
2026-04-21 15:21 59.74895 22.45128 30850 ft 438 kts 59°
2026-04-21 15:21 59.76339 22.50456 29915 ft 439 kts 59°
2026-04-21 15:21 59.77782 22.55806 28945 ft 439 kts 59°
2026-04-21 15:22 59.79220 22.61160 27980 ft 439 kts 59°
2026-04-21 15:22 59.80653 22.66507 27010 ft 439 kts 59°
2026-04-21 15:22 59.82094 22.71892 25920 ft 442 kts 60°
2026-04-21 15:22 59.83544 22.77312 24838 ft 445 kts 60°
2026-04-21 15:23 59.84997 22.82760 23861 ft 446 kts 60°
2026-04-21 15:23 59.86449 22.88213 22893 ft 444 kts 60°
2026-04-21 15:23 59.87877 22.93587 22107 ft 437 kts 60°
2026-04-21 15:23 59.89286 22.98915 21299 ft 431 kts 60°
2026-04-21 15:24 59.90669 23.04162 20492 ft 426 kts 60°
2026-04-21 15:24 59.92037 23.09363 19712 ft 421 kts 60°
2026-04-21 15:24 59.93388 23.14521 18938 ft 417 kts 60°
2026-04-21 15:24 59.94721 23.19619 18128 ft 413 kts 59°
2026-04-21 15:25 59.96037 23.24658 17346 ft 407 kts 59°
2026-04-21 15:25 59.97338 23.29637 16586 ft 402 kts 59°
2026-04-21 15:25 59.98624 23.34563 15861 ft 398 kts 59°
2026-04-21 15:25 59.99894 23.39439 15143 ft 395 kts 59°
2026-04-21 15:26 60.01152 23.44278 14449 ft 392 kts 59°
2026-04-21 15:26 60.02401 23.49092 13760 ft 389 kts 59°
2026-04-21 15:26 60.03645 23.53902 13076 ft 385 kts 59°
2026-04-21 15:26 60.04866 23.58636 12448 ft 380 kts 59°
2026-04-21 15:27 60.06064 23.63308 11832 ft 375 kts 60°
2026-04-21 15:27 60.07222 23.67839 11384 ft 361 kts 60°
2026-04-21 15:27 60.08306 23.72100 11022 ft 327 kts 60°
2026-04-21 15:27 60.09290 23.75981 10783 ft 297 kts 59°
2026-04-21 15:28 60.10181 23.79498 10585 ft 271 kts 59°
2026-04-21 15:28 60.11024 23.82808 10196 ft 265 kts 59°
2026-04-21 15:28 60.11858 23.86066 10024 ft 261 kts 59°
2026-04-21 15:28 60.12689 23.89311 9881 ft 262 kts 59°
2026-04-21 15:29 60.13519 23.92564 9757 ft 261 kts 59°
2026-04-21 15:29 60.14343 23.95813 9619 ft 261 kts 59°
2026-04-21 15:29 60.15162 23.99048 9481 ft 260 kts 59°
2026-04-21 15:29 60.15974 24.02267 9342 ft 258 kts 59°
2026-04-21 15:30 60.16765 24.05415 9221 ft 246 kts 59°
2026-04-21 15:30 60.17526 24.08448 9066 ft 239 kts 60°
2026-04-21 15:30 60.18257 24.11366 8991 ft 229 kts 59°
2026-04-21 15:30 60.18970 24.14208 8937 ft 227 kts 59°
2026-04-21 15:31 60.19517 24.17190 8846 ft 230 kts 74°
2026-04-21 15:31 60.19651 24.20418 8710 ft 236 kts 89°
2026-04-21 15:31 60.19336 24.23713 8329 ft 244 kts 105°
2026-04-21 15:31 60.18722 24.26904 7981 ft 245 kts 107°
2026-04-21 15:32 60.18110 24.30073 7635 ft 239 kts 107°
2026-04-21 15:32 60.17510 24.33185 7319 ft 239 kts 107°
2026-04-21 15:32 60.16905 24.36318 6976 ft 240 kts 107°
2026-04-21 15:32 60.16301 24.39448 6606 ft 242 kts 107°
2026-04-21 15:33 60.15700 24.42558 6149 ft 235 kts 107°
2026-04-21 15:33 60.15117 24.45572 5706 ft 229 kts 107°
2026-04-21 15:33 60.14585 24.48568 5347 ft 229 kts 97°
2026-04-21 15:33 60.14522 24.51661 5156 ft 221 kts 77°
2026-04-21 15:34 60.14999 24.54535 4912 ft 216 kts 57°
2026-04-21 15:34 60.15915 24.56885 4643 ft 213 kts 44°
2026-04-21 15:34 60.16911 24.59035 4351 ft 209 kts 45°
2026-04-21 15:34 60.17876 24.61149 4163 ft 202 kts 45°
2026-04-21 15:35 60.18799 24.63249 3892 ft 200 kts 46°
2026-04-21 15:35 60.19420 24.64661 3663 ft 198 kts 45°
2026-04-21 15:35 60.20306 24.66672 3496 ft 185 kts 45°
2026-04-21 15:35 60.21147 24.68566 3224 ft 178 kts 45°
2026-04-21 15:36 60.21955 24.70410 2834 ft 174 kts 46°
2026-04-21 15:36 60.22758 24.72137 2584 ft 163 kts 43°
2026-04-21 15:36 60.23514 24.73717 2417 ft 151 kts 43°
2026-04-21 15:36 60.24231 24.75193 2343 ft 145 kts 43°
2026-04-21 15:37 60.24929 24.76583 2224 ft 138 kts 42°
2026-04-21 15:37 60.25587 24.77957 1976 ft 135 kts 43°
2026-04-21 15:37 60.26223 24.79326 1721 ft 134 kts 44°
2026-04-21 15:37 60.26849 24.80699 1484 ft 133 kts 44°
2026-04-21 15:38 60.27477 24.82072 1311 ft 132 kts 44°
2026-04-21 15:38 60.28122 24.83403 1110 ft 133 kts 41°
2026-04-21 15:38 60.28740 24.84757 939 ft 135 kts 46°
2026-04-21 15:38 60.29365 24.86178 728 ft 134 kts 44°
2026-04-21 15:39 60.30005 24.87537 555 ft 134 kts 44°
2026-04-21 15:39 60.30623 24.88935 380 ft 133 kts 44°
2026-04-21 15:39 60.31248 24.90285 193 ft 131 kts 45°
2026-04-21 15:39 60.31825 24.91533 150 ft 104 kts 47°
2026-04-21 15:40 60.32223 24.92408 165 ft 67 kts 48°
2026-04-21 15:40 60.32500 24.93021 176 ft 54 kts 47°
2026-04-21 15:40 60.32728 24.93536 181 ft 46 kts 49°
2026-04-21 15:40 60.32923 24.93978 192 ft 39 kts 48°
2026-04-21 15:41 60.33053 24.94336 192 ft 25 kts 80°
2026-04-21 15:41 60.33031 24.94665 182 ft 19 kts 121°
2026-04-21 15:41 60.32920 24.94866 176 ft 22 kts 138°
2026-04-21 15:41 60.32790 24.94978 177 ft 19 kts 153°
2026-04-21 15:42 60.32667 24.95066 180 ft 19 kts 162°
2026-04-21 15:42 60.32540 24.95146 180 ft 20 kts 162°
2026-04-21 15:42 60.32412 24.95234 178 ft 20 kts 161°
2026-04-21 15:42 60.32283 24.95362 176 ft 22 kts 135°
2026-04-21 15:43 60.32173 24.95578 173 ft 21 kts 137°
2026-04-21 15:43 60.32065 24.95794 174 ft 22 kts 133°
2026-04-21 15:43 60.31952 24.95966 171 ft 19 kts 171°
2026-04-21 15:43 60.31852 24.95794 169 ft 20 kts 227°
2026-04-21 15:44 60.31758 24.95583 170 ft 19 kts 227°
2026-04-21 15:44 60.31670 24.95389 170 ft 19 kts 228°
2026-04-21 15:44 60.31576 24.95179 170 ft 20 kts 225°
2026-04-21 15:44 60.31475 24.95232 167 ft 15 kts 138°
2026-04-21 15:45 60.31462 24.95372 167 ft 10 kts 55°
2026-04-21 15:45 60.31443 24.95464 167 ft 9 kts 145°
2026-04-21 15:45 60.31418 24.95506 167 ft 2 kts 137°
2026-04-21 15:45 60.31415 24.95510 167 ft 0 kts 137°